Location: Coed Ely
(51.5661°N, 3.4150°W)
Time: 23:47:38
(UTC+00:00)

NOSS 2-1 (C) - Pass Details

Date: 28 January 2021
Orbit: 432 x 1770 km, 63.3° (Epoch: 27 February)

Event Time Altitude Azimuth Distance (km) Brightness Sun altitude
Rises 19:08:36 0° 246° (WSW) 2,404 7.8 -20.4°
Reaches altitude 10° 19:10:41 10° 255° (WSW) 1,541 6.7 -20.8°
Maximum altitude 19:13:48 38° 326° (NW) 712 4.1 -21.2°
Enters shadow 19:14:31 34° 356° (N) 792 4.1 -21.4°
